Regional Weather Roundup
Issued by NWS Jackson, KY

Home | Current Version | Previous Version | Graphics & Text | Print | Product List | Glossary On
Versions: 1 2 3 4 5 6 7 8 9 10 11 12 13 14 15 16 17 18 19 20 21 22 23 24 25 26 27 28 29 30 31 32 33 34 35 36 37 38 39 40 41 42 43 44 45 46 47 48 49 50
000
ASUS43 KJKL 011819
RWRJKL

EAST KENTUCKY HOURLY WEATHER ROUNDUP
NATIONAL WEATHER SERVICE JACKSON KY
200 PM EDT FRI AUG 01 2014

NOTE: "FAIR" INDICATES FEW OR NO CLOUDS BELOW 12,000 FEET WITH
NO SIGNIFICANT WEATHER AND/OR OBSTRUCTIONS TO VISIBILITY.

* THESE REPORTS ARE NOT UNDER NWS QUALITY CONTROL AND MAY NOT
  REPORT WEATHER SUCH AS PRECIPITATION AND FOG.

KYZ079-080-083-085-087-088-110-112-115-119-120-011900
...EASTERN KENTUCKY...

CITY           SKY/WX    TMP DP  RH WIND       PRES   REMARKS
JACKSON        SUNNY     80  62  54 VRB3      30.11F
6HR MIN TEMP:  66; 6HR MAX TEMP:  81;

LONDON         MOSUNNY   82  60  47 CALM      30.11F
6HR MIN TEMP:  64; 6HR MAX TEMP:  82;

SOMERSET*      MOSUNNY   81  59  47 E6        30.10F
MONTICELLO*    SUNNY     84  65  52 NE6       30.11F
6HR MIN TEMP:  62; 6HR MAX TEMP:  84;

WILLIAMSBURG*  MOSUNNY   81  64  57 CALM      30.10
MIDDLESBORO*   PTSUNNY   80  63  56 CALM      30.10F
6HR MIN TEMP:  61; 6HR MAX TEMP:  82;

HARLAN APT*    MOCLDY    77  61  57 MISG      30.12S
HAZARD APT*    MOCLDY    81  63  54 W3        30.11
BLACK MTN*       N/A    N/A N/A N/A SE2         N/A
PIKEVILLE APT* PTSUNNY   77  63  61 SE6       30.12F
BIG SANDY*     MOCLDY    78  65  62 CALM      30.11F
6HR MIN TEMP:  64; 6HR MAX TEMP:  82;

MOREHEAD APT*    N/A     82  63  51 SE7G14    30.12F
ASHLAND*       MOSUNNY   82  64  54 CALM      30.08F
$$

KYZ035-036-041-042-044-050-067-078-099-011900
...CENTRAL KENTUCKY...

CITY           SKY/WX    TMP DP  RH WIND       PRES   REMARKS
MT STERLING*   CLOUDY    79  59  50 E6        30.12F
FLEMING/MASON* SUNNY     81  59  47 SE3       30.12S
DANVILLE*      MOSUNNY   81  61  50 N3        30.11F
RICHMOND*      MOSUNNY   82  59  44 NE7       30.10S
LEXINGTON      MOSUNNY   84  59  42 VRB5      30.11F
6HR MIN TEMP:  66; 6HR MAX TEMP:  84;

FRANKFORT      PTSUNNY   83  56  39 N8        30.09F
6HR MIN TEMP:  61; 6HR MAX TEMP:  84;

$$

KYZ091>093-OHZ055-061-077-WVZ005-015-034-035-042-011900
...SOUTHERN OHIO/WEST VIRGINIA...

CITY           SKY/WX    TMP DP  RH WIND       PRES   REMARKS
COVINGTON      PTSUNNY   82  57  42 CALM      30.11S
COLUMBUS       MOSUNNY   85  58  39 SE7       30.10F
DAYTON         PTSUNNY   83  57  41 NE8       30.13F
WILMINGTON     MOSUNNY   80  62  54 NE6       30.11F
HUNTINGTON     MOSUNNY   81  64  56 E3        30.09F
CHARLESTON     PTSUNNY   81  65  58 S13       30.12S
PINEVILLE*     CLOUDY    78  64  62 MISG      30.21
BECKLEY        PTSUNNY   72  58  61 S14G20    30.22S
BLUEFIELD      CLOUDY    69  58  67 CALM      30.23S
$$

VAZ002-007-008-TNZ017-027-036-066-071-011900
...SOUTHWEST VIRGINIA/EAST TENNESSEE...

CITY           SKY/WX    TMP DP  RH WIND       PRES   REMARKS
WISE*          MOSUNNY   73  55  53 S8        30.19F
JONESVILLE*    CLEAR     81  63  54 CALM      30.13F
ABINGDON*      CLOUDY    74  61  63 S12       30.18S
BRISTOL        PTSUNNY   79  60  52 S7        30.13F
KNOXVILLE      PTSUNNY   80  64  58 NE8       30.07F
OAK RIDGE      PTSUNNY   82  63  52 E6        30.09F
CROSSVILLE     PTSUNNY   77  62  59 VRB3      30.12F
NASHVILLE      PTSUNNY   87  62  43 E7        30.07F
$$

...KEY TO REMARKS...
VSB - VISIBILITY IN MILES
WCI - WIND CHILL INDEX
HX  - HEAT INDEX

$$


USA.gov is the U.S. government's official web portal to all federal, state and local government web resources and services.